Terminal Aerodrome Forecast
Issued by NWS

Home | Current Version | Previous Version | Text Only | Print | Product List | Glossary On
Versions: 1 2 3 4 5 6 7 8 9 10 11 12
000
FTUS42 KGSP 252330
TAFGMU
TAF
KGMU 252330Z 2600/2624 02008KT P6SM SCT250
     FM260600 01005KT P6SM FEW060
     FM261500 03008KT P6SM FEW050=

USA.gov is the U.S. government's official web portal to all federal, state and local government web resources and services.